Location: Unspecified
(49.9820°N, 20.4363°E)
Time: 13:39:51
(UTC+02:00)

ISS - Pass Details

Date: 18 May 2018
Orbit: 402 x 407 km, 51.6° (Epoch: 20 May)

Event Time Altitude Azimuth Distance (km) Brightness Sun altitude
Rises 03:21:37 0° 285° (WNW) 2,320 -0.2 -11.3°
Reaches altitude 10° 03:23:42 10° 286° (WNW) 1,459 -1.3 -11.1°
Maximum altitude 03:26:59 86° 17° (NNE) 409 -3.8 -10.8°
Drops below altitude 10° 03:30:14 10° 105° (ESE) 1,456 -0.7 -10.4°
Sets 03:32:19 0° 106° (ESE) 2,314 0.4 -10.2°
